GW3751 Weather Reports


time (UTC)temp
C
wind
direction
speed
KPH
gust
KPH
rain 1hr
cm
rain 24hr
cm
rain mn
cm
humidity
%
barometer
mb
20260504081534 13 165 4.8 9.7 0.00 0.00 0.00 68 1009.7
20260504044537 14 0 1.6 9.7 0.00 0.00 0.00 63 1011.6
20260504043030 15 106 6.4 17.7 0.00 0.00 0.00 60 1011.5
20260504041532 15 153 11.3 17.7 0.00 0.00 0.00 59 1011.4
20260504040030 15 171 12.9 20.9 0.00 0.00 0.00 59 1011.4
20260504034548 15 156 12.9 20.9 0.00 0.00 0.00 59 1011.7
20260504033029 15 194 11.3 19.3 0.00 0.00 0.00 60 1011.6
20260504031530 15 189 11.3 19.3 0.00 0.00 0.00 59 1012.1
20260504030042 15 153 9.7 16.1 0.00 0.00 0.00 60 1012.3
20260504024532 15 167 9.7 14.5 0.00 0.00 0.00 59 1012.4
20260504023031 15 132 8.0 11.3 0.00 0.00 0.00 59 1012.4
20260504021532 15 141 6.4 11.3 0.00 0.00 0.00 57 1012.7
20260504020031 16 139 8.0 12.9 0.00 0.00 0.00 55 1012.5
20260504014537 16 176 8.0 11.3 0.00 0.00 0.00 54 1012.5
20260504013036 16 151 4.8 8.0 0.00 0.00 0.00 53 1012.7
20260504011530 16 181 3.2 6.4 0.00 0.00 0.00 52 1012.6
20260504010029 16 192 3.2 8.0 0.00 0.00 0.00 51 1012.6
20260504004533 17 199 1.6 4.8 0.00 0.00 0.00 50 1012.6
20260504003034 17 180 3.2 17.7 0.00 0.00 0.00 48 1012.3
20260504001530 17 203 11.3 19.3 0.00 0.00 0.00 47 1011.6
20260504000031 18 212 16.1 27.4 0.00 0.00 0.00 46 1011.5
20260503234540 18 172 14.5 29.0 0.00 0.00 0.00 46 1011.8
20260503233031 18 183 11.3 22.5 0.00 0.00 0.00 46 1011.9
20260503231533 18 208 9.7 20.9 0.00 0.00 0.00 47 1012.0
20260503230035 18 191 14.5 24.1 0.00 0.00 0.00 46 1012.1
20260503224532 19 196 12.9 38.6 0.00 0.00 0.00 46 1012.4
20260503223030 18 206 16.1 32.2 0.00 0.00 0.00 45 1012.8
20260503221534 19 203 11.3 32.2 0.00 0.00 0.00 46 1013.0
20260503220032 19 211 12.9 32.2 0.00 0.00 0.00 45 1013.2
20260503214533 19 198 8.0 25.7 0.00 0.00 0.00 47 1013.5
20260503213032 18 217 11.3 33.8 0.00 0.00 0.00 46 1013.7
20260503211530 18 165 19.3 37.0 0.00 0.00 0.00 45 1014.0
20260503210029 18 188 14.5 35.4 0.00 0.00 0.00 46 1014.6
20260503204544 18 203 16.1 30.6 0.00 0.00 0.00 48 1014.7
20260503203032 18 228 16.1 35.4 0.00 0.00 0.00 45 1015.1
20260503201530 18 182 11.3 30.6 0.00 0.00 0.00 47 1015.7
20260503200034 18 185 11.3 29.0 0.00 0.00 0.00 47 1016.0
20260503194535 17 193 14.5 25.7 0.00 0.00 0.00 47 1016.1
20260503193042 17 233 11.3 30.6 0.00 0.00 0.00 45 1016.4
20260503191532 17 195 17.7 33.8 0.00 0.00 0.00 46 1016.7
20260503190035 17 216 11.3 27.4 0.00 0.00 0.00 48 1017.1
20260503184537 17 195 12.9 24.1 0.00 0.03 0.00 46 1017.5
20260503183035 17 200 16.1 29.0 0.00 0.03 0.00 48 1017.8
20260503180032 16 262 11.3 29.0 0.00 0.03 0.00 47 1018.0
20260503174534 17 198 14.5 25.7 0.00 0.10 0.00 48 1018.4
20260503173056 16 189 6.4 24.1 0.00 0.10 0.00 46 1018.8
20260503171532 16 245 8.0 24.1 0.00 0.10 0.00 48 1018.9
20260503170451 16 197 8.0 19.3 0.00 0.10 0.00 51 1019.2